Year,Month,Day,Hour,Minute,Value (Times are PST for temperature in C)
2012,09,13,00,00,13.00
2012,09,13,00,01,13.00
2012,09,13,00,02,13.00
2012,09,13,00,03,12.90
2012,09,13,00,04,12.90
2012,09,13,00,05,12.90
2012,09,13,00,06,12.90
2012,09,13,00,07,12.90
2012,09,13,00,08,12.90
2012,09,13,00,09,12.90
2012,09,13,00,10,12.90
2012,09,13,00,11,12.90
2012,09,13,00,12,12.90
2012,09,13,00,13,12.80
2012,09,13,00,14,12.80
2012,09,13,00,15,12.80
2012,09,13,00,16,12.80
2012,09,13,00,17,12.80
2012,09,13,00,18,12.80
2012,09,13,00,19,12.80
2012,09,13,00,20,12.80
2012,09,13,00,21,12.80
2012,09,13,00,22,12.80
2012,09,13,00,23,12.80
2012,09,13,00,24,12.90
2012,09,13,00,25,12.90
2012,09,13,00,26,12.90
2012,09,13,00,27,12.90
2012,09,13,00,28,12.90
2012,09,13,00,29,12.90
2012,09,13,00,30,12.90
2012,09,13,00,31,12.90
2012,09,13,00,32,12.90
2012,09,13,00,33,12.90
2012,09,13,00,34,12.90
2012,09,13,00,35,12.90
2012,09,13,00,36,13.00
2012,09,13,00,37,13.00
2012,09,13,00,38,13.00
2012,09,13,00,39,13.00
2012,09,13,00,40,13.00
2012,09,13,00,41,13.00
2012,09,13,00,42,13.00
2012,09,13,00,43,13.10
2012,09,13,00,44,13.10
2012,09,13,00,45,13.10
2012,09,13,00,46,13.10
2012,09,13,00,47,13.10
2012,09,13,00,48,13.10
2012,09,13,00,49,13.10
2012,09,13,00,50,13.10
2012,09,13,00,51,13.10
2012,09,13,00,52,13.10
2012,09,13,00,53,13.10
2012,09,13,00,54,13.10
2012,09,13,00,55,13.20
2012,09,13,00,56,13.20
2012,09,13,00,57,13.20
2012,09,13,00,58,13.20
2012,09,13,00,59,13.20
2012,09,13,01,00,13.20
2012,09,13,01,01,13.10
2012,09,13,01,02,13.10
2012,09,13,01,03,13.10
2012,09,13,01,04,13.10
2012,09,13,01,05,13.10
2012,09,13,01,06,13.00
2012,09,13,01,07,13.00
2012,09,13,01,08,12.90
2012,09,13,01,09,12.90
2012,09,13,01,10,12.90
2012,09,13,01,11,12.80
2012,09,13,01,12,12.80
2012,09,13,01,13,12.70
2012,09,13,01,14,12.60
2012,09,13,01,15,12.60
2012,09,13,01,16,12.50
2012,09,13,01,17,12.50
2012,09,13,01,18,12.40
2012,09,13,01,19,12.40
2012,09,13,01,20,12.30
2012,09,13,01,21,12.30
2012,09,13,01,22,12.20
2012,09,13,01,23,12.20
2012,09,13,01,24,12.20
2012,09,13,01,25,12.20
2012,09,13,01,26,12.10
2012,09,13,01,27,12.10
2012,09,13,01,28,12.20
2012,09,13,01,29,12.20
2012,09,13,01,30,12.20
2012,09,13,01,31,12.20
2012,09,13,01,32,12.30
2012,09,13,01,33,12.30
2012,09,13,01,34,12.30
2012,09,13,01,35,12.30
2012,09,13,01,36,12.30
2012,09,13,01,37,12.30
2012,09,13,01,38,12.30
2012,09,13,01,39,12.30
2012,09,13,01,40,12.30
2012,09,13,01,41,12.30
2012,09,13,01,42,12.30
2012,09,13,01,43,12.30
2012,09,13,01,44,12.20
2012,09,13,01,45,12.20
2012,09,13,01,46,12.20
2012,09,13,01,47,12.20
2012,09,13,01,48,12.20
2012,09,13,01,49,12.10
2012,09,13,01,50,12.10
2012,09,13,01,51,12.10
2012,09,13,01,52,12.10
2012,09,13,01,53,12.00
2012,09,13,01,54,12.00
2012,09,13,01,55,12.00
2012,09,13,01,56,11.90
2012,09,13,01,57,11.90
2012,09,13,01,58,11.90
2012,09,13,01,59,11.90
2012,09,13,02,00,11.90
2012,09,13,02,01,11.90
2012,09,13,02,02,12.00
2012,09,13,02,03,12.00
2012,09,13,02,04,12.00
2012,09,13,02,05,12.10
2012,09,13,02,06,12.10
2012,09,13,02,07,12.10
2012,09,13,02,08,12.20
2012,09,13,02,09,12.20
2012,09,13,02,10,12.20
2012,09,13,02,11,12.30
2012,09,13,02,12,12.30
2012,09,13,02,13,12.30
2012,09,13,02,14,12.40
2012,09,13,02,15,12.40
2012,09,13,02,16,12.40
2012,09,13,02,17,12.40
2012,09,13,02,18,12.40
2012,09,13,02,19,12.40
2012,09,13,02,20,12.40
2012,09,13,02,21,12.40
2012,09,13,02,22,12.40
2012,09,13,02,23,12.40
2012,09,13,02,24,12.40
2012,09,13,02,25,12.40
2012,09,13,02,26,12.50
2012,09,13,02,27,12.50
2012,09,13,02,28,12.50
2012,09,13,02,29,12.50
2012,09,13,02,30,12.50
2012,09,13,02,31,12.60
2012,09,13,02,32,12.60
2012,09,13,02,33,12.60
2012,09,13,02,34,12.60
2012,09,13,02,35,12.60
2012,09,13,02,36,12.60
2012,09,13,02,37,12.60
2012,09,13,02,38,12.50
2012,09,13,02,39,12.50
2012,09,13,02,40,12.50
2012,09,13,02,41,12.50
2012,09,13,02,42,12.50
2012,09,13,02,43,12.50
2012,09,13,02,44,12.50
2012,09,13,02,45,12.40
2012,09,13,02,46,12.40
2012,09,13,02,47,12.40
2012,09,13,02,48,12.40
2012,09,13,02,49,12.40
2012,09,13,02,50,12.40
2012,09,13,02,51,12.40
2012,09,13,02,52,12.40
2012,09,13,02,53,12.40
2012,09,13,02,54,12.40
2012,09,13,02,55,12.40
2012,09,13,02,56,12.40
2012,09,13,02,57,12.40
2012,09,13,02,58,12.40
2012,09,13,02,59,12.30
2012,09,13,03,00,12.30
2012,09,13,03,01,12.30
2012,09,13,03,02,12.30
2012,09,13,03,03,12.30
2012,09,13,03,04,12.30
2012,09,13,03,05,12.30
2012,09,13,03,06,12.30
2012,09,13,03,07,12.30
2012,09,13,03,08,12.30
2012,09,13,03,09,12.30
2012,09,13,03,10,12.30
2012,09,13,03,11,12.30
2012,09,13,03,12,12.40
2012,09,13,03,13,12.40
2012,09,13,03,14,12.40
2012,09,13,03,15,12.40
2012,09,13,03,16,12.40
2012,09,13,03,17,12.50
2012,09,13,03,18,12.50
2012,09,13,03,19,12.60
2012,09,13,03,20,12.60
2012,09,13,03,21,12.70
2012,09,13,03,22,12.70
2012,09,13,03,23,12.80
2012,09,13,03,24,12.80
2012,09,13,03,25,12.90
2012,09,13,03,26,12.90
2012,09,13,03,27,13.00
2012,09,13,03,28,13.00
2012,09,13,03,29,13.10
2012,09,13,03,30,13.10
2012,09,13,03,31,13.10
2012,09,13,03,32,13.10
2012,09,13,03,33,13.10
2012,09,13,03,34,13.10
2012,09,13,03,35,13.10
2012,09,13,03,36,13.10
2012,09,13,03,37,13.00
2012,09,13,03,38,13.00
2012,09,13,03,39,12.90
2012,09,13,03,40,12.90
2012,09,13,03,41,12.80
2012,09,13,03,42,12.80
2012,09,13,03,43,12.80
2012,09,13,03,44,12.70
2012,09,13,03,45,12.70
2012,09,13,03,46,12.70
2012,09,13,03,47,12.60
2012,09,13,03,48,12.60
2012,09,13,03,49,12.60
2012,09,13,03,50,12.50
2012,09,13,03,51,12.50
2012,09,13,03,52,12.40
2012,09,13,03,53,12.40
2012,09,13,03,54,12.40
2012,09,13,03,55,12.40
2012,09,13,03,56,12.40
2012,09,13,03,57,12.30
2012,09,13,03,58,12.30
2012,09,13,03,59,12.30
2012,09,13,04,00,12.20
2012,09,13,04,01,12.20
2012,09,13,04,02,12.10
2012,09,13,04,03,12.00
2012,09,13,04,04,11.90
2012,09,13,04,05,11.90
2012,09,13,04,06,11.80
2012,09,13,04,07,11.80
2012,09,13,04,08,11.70
2012,09,13,04,09,11.70
2012,09,13,04,10,11.70
2012,09,13,04,11,11.80
2012,09,13,04,12,11.80
2012,09,13,04,13,11.80
2012,09,13,04,14,11.90
2012,09,13,04,15,11.90
2012,09,13,04,16,12.00
2012,09,13,04,17,12.10
2012,09,13,04,18,12.10
2012,09,13,04,19,12.10
2012,09,13,04,20,12.20
2012,09,13,04,21,12.20
2012,09,13,04,22,12.20
2012,09,13,04,23,12.20
2012,09,13,04,24,12.30
2012,09,13,04,25,12.30
2012,09,13,04,26,12.30
2012,09,13,04,27,12.30
2012,09,13,04,28,12.30
2012,09,13,04,29,12.30
2012,09,13,04,30,12.30
2012,09,13,04,31,12.30
2012,09,13,04,32,12.30
2012,09,13,04,33,12.30
2012,09,13,04,34,12.30
2012,09,13,04,35,12.30
2012,09,13,04,36,12.30
2012,09,13,04,37,12.40
2012,09,13,04,38,12.40
2012,09,13,04,39,12.40
2012,09,13,04,40,12.50
2012,09,13,04,41,12.50
2012,09,13,04,42,12.60
2012,09,13,04,43,12.60
2012,09,13,04,44,12.70
2012,09,13,04,45,12.70
2012,09,13,04,46,12.80
2012,09,13,04,47,12.80
2012,09,13,04,48,12.90
2012,09,13,04,49,12.90
2012,09,13,04,50,12.90
2012,09,13,04,51,13.00
2012,09,13,04,52,13.10
2012,09,13,04,53,13.10
2012,09,13,04,54,13.20
2012,09,13,04,55,13.20
2012,09,13,04,56,13.30
2012,09,13,04,57,13.30
2012,09,13,04,58,13.30
2012,09,13,04,59,13.30
2012,09,13,05,00,13.40
2012,09,13,05,01,13.40
2012,09,13,05,02,13.40
2012,09,13,05,03,13.40
2012,09,13,05,04,13.40
2012,09,13,05,05,13.50
2012,09,13,05,06,13.50
2012,09,13,05,07,13.50
2012,09,13,05,08,13.50
2012,09,13,05,09,13.60
2012,09,13,05,10,13.60
2012,09,13,05,11,13.60
2012,09,13,05,12,13.60
2012,09,13,05,13,13.60
2012,09,13,05,14,13.60
2012,09,13,05,15,13.60
2012,09,13,05,16,13.60
2012,09,13,05,17,13.60
2012,09,13,05,18,13.70
2012,09,13,05,19,13.70
2012,09,13,05,20,13.70
2012,09,13,05,21,13.70
2012,09,13,05,22,13.70
2012,09,13,05,23,13.70
2012,09,13,05,24,13.70
2012,09,13,05,25,13.70
2012,09,13,05,26,13.70
2012,09,13,05,27,13.70
2012,09,13,05,28,13.70
2012,09,13,05,29,13.70
2012,09,13,05,30,13.70
2012,09,13,05,31,13.70
2012,09,13,05,32,13.70
2012,09,13,05,33,13.70
2012,09,13,05,34,13.70
2012,09,13,05,35,13.70
2012,09,13,05,36,13.80
2012,09,13,05,37,13.80
2012,09,13,05,38,13.80
2012,09,13,05,39,13.80
2012,09,13,05,40,13.80
2012,09,13,05,41,13.80
2012,09,13,05,42,13.80
2012,09,13,05,43,13.80
2012,09,13,05,44,13.80
2012,09,13,05,45,13.80
2012,09,13,05,46,13.80
2012,09,13,05,47,13.80
2012,09,13,05,48,13.70
2012,09,13,05,49,13.70
2012,09,13,05,50,13.70
2012,09,13,05,51,13.60
2012,09,13,05,52,13.50
2012,09,13,05,53,13.50
2012,09,13,05,54,13.40
2012,09,13,05,55,13.40
2012,09,13,05,56,13.40
2012,09,13,05,57,13.40
2012,09,13,05,58,13.50
2012,09,13,05,59,13.50
2012,09,13,06,00,13.40
2012,09,13,06,01,13.40
2012,09,13,06,02,13.40
2012,09,13,06,03,13.40
2012,09,13,06,04,13.30
2012,09,13,06,05,13.30
2012,09,13,06,06,13.30
2012,09,13,06,07,13.30
2012,09,13,06,08,13.20
2012,09,13,06,09,13.20
2012,09,13,06,10,13.20
2012,09,13,06,11,13.10
2012,09,13,06,12,13.10
2012,09,13,06,13,13.10
2012,09,13,06,14,13.10
2012,09,13,06,15,13.00
2012,09,13,06,16,13.00
2012,09,13,06,17,13.00
2012,09,13,06,18,13.00
2012,09,13,06,19,12.90
2012,09,13,06,20,12.90
2012,09,13,06,21,12.90
2012,09,13,06,22,12.90
2012,09,13,06,23,12.90
2012,09,13,06,24,12.90
2012,09,13,06,25,12.80
2012,09,13,06,26,12.80
2012,09,13,06,27,12.80
2012,09,13,06,28,12.80
2012,09,13,06,29,12.80
2012,09,13,06,30,12.80
2012,09,13,06,31,12.80
2012,09,13,06,32,12.80
2012,09,13,06,33,12.70
2012,09,13,06,34,12.70
2012,09,13,06,35,12.70
2012,09,13,06,36,12.70
2012,09,13,06,37,12.70
2012,09,13,06,38,12.60
2012,09,13,06,39,12.60
2012,09,13,06,40,12.60
2012,09,13,06,41,12.60
2012,09,13,06,42,12.50
2012,09,13,06,43,12.50
2012,09,13,06,44,12.40
2012,09,13,06,45,12.40
2012,09,13,06,46,12.40
2012,09,13,06,47,12.40
2012,09,13,06,48,12.40
2012,09,13,06,49,12.40
2012,09,13,06,50,12.40
2012,09,13,06,51,12.30
2012,09,13,06,52,12.30
2012,09,13,06,53,12.30
2012,09,13,06,54,12.30
2012,09,13,06,55,12.30
2012,09,13,06,56,12.30
2012,09,13,06,57,12.30
2012,09,13,06,58,12.20
2012,09,13,06,59,12.20
2012,09,13,07,00,12.20
2012,09,13,07,01,12.20
2012,09,13,07,02,12.20
2012,09,13,07,03,12.20
2012,09,13,07,04,12.30
2012,09,13,07,05,12.30
2012,09,13,07,06,12.30
2012,09,13,07,07,12.30
2012,09,13,07,08,12.30
2012,09,13,07,09,12.30
2012,09,13,07,10,12.30
2012,09,13,07,11,12.30
2012,09,13,07,12,12.30
2012,09,13,07,13,12.30
2012,09,13,07,14,12.40
2012,09,13,07,15,12.40
2012,09,13,07,16,12.40
2012,09,13,07,17,12.40
2012,09,13,07,18,12.50
2012,09,13,07,19,12.50
2012,09,13,07,20,12.50
2012,09,13,07,21,12.60
2012,09,13,07,22,12.60
2012,09,13,07,23,12.60
2012,09,13,07,24,12.70
2012,09,13,07,25,12.70
2012,09,13,07,26,12.70
2012,09,13,07,27,12.80
2012,09,13,07,28,12.80
2012,09,13,07,29,12.80
2012,09,13,07,30,12.90
2012,09,13,07,31,12.90
2012,09,13,07,32,12.90
2012,09,13,07,33,12.90
2012,09,13,07,34,13.00
2012,09,13,07,35,13.00
2012,09,13,07,36,13.00
2012,09,13,07,37,13.00
2012,09,13,07,38,13.00
2012,09,13,07,39,13.00
2012,09,13,07,40,13.10
2012,09,13,07,41,13.10
2012,09,13,07,42,13.10
2012,09,13,07,43,13.10
2012,09,13,07,44,13.10
2012,09,13,07,45,13.20
2012,09,13,07,46,13.20
2012,09,13,07,47,13.20
2012,09,13,07,48,13.30
2012,09,13,07,49,13.30
2012,09,13,07,50,13.30
2012,09,13,07,51,13.40
2012,09,13,07,52,13.40
2012,09,13,07,53,13.50
2012,09,13,07,54,13.50
2012,09,13,07,55,13.60
2012,09,13,07,56,13.60
2012,09,13,07,57,13.60
2012,09,13,07,58,13.70
2012,09,13,07,59,13.70
2012,09,13,08,00,13.70
2012,09,13,08,01,13.80
2012,09,13,08,02,13.80
2012,09,13,08,03,13.90
2012,09,13,08,04,13.90
2012,09,13,08,05,14.00
2012,09,13,08,06,14.00
2012,09,13,08,07,14.10
2012,09,13,08,08,14.10
2012,09,13,08,09,14.10
2012,09,13,08,10,14.20
2012,09,13,08,11,14.20
2012,09,13,08,12,14.20
2012,09,13,08,13,14.30
2012,09,13,08,14,14.30
2012,09,13,08,15,14.30
2012,09,13,08,16,14.40
2012,09,13,08,17,14.40
2012,09,13,08,18,14.40
2012,09,13,08,19,14.50
2012,09,13,08,20,14.50
2012,09,13,08,21,14.60
2012,09,13,08,22,14.60
2012,09,13,08,23,14.60
2012,09,13,08,24,14.70
2012,09,13,08,25,14.70
2012,09,13,08,26,14.70
2012,09,13,08,27,14.80
2012,09,13,08,28,14.80
2012,09,13,08,29,14.80
2012,09,13,08,30,14.90
2012,09,13,08,31,14.90
2012,09,13,08,32,14.90
2012,09,13,08,33,15.00
2012,09,13,08,34,15.00
2012,09,13,08,35,15.10
2012,09,13,08,36,15.10
2012,09,13,08,37,15.10
2012,09,13,08,38,15.20
2012,09,13,08,39,15.20
2012,09,13,08,40,15.20
2012,09,13,08,41,15.30
2012,09,13,08,42,15.30
2012,09,13,08,43,15.30
2012,09,13,08,44,15.30
2012,09,13,08,45,15.40
2012,09,13,08,46,15.40
2012,09,13,08,47,15.40
2012,09,13,08,48,15.40
2012,09,13,08,49,15.50
2012,09,13,08,50,15.50
2012,09,13,08,51,15.50
2012,09,13,08,52,15.60
2012,09,13,08,53,15.60
2012,09,13,08,54,15.60
2012,09,13,08,55,15.60
2012,09,13,08,56,15.60
2012,09,13,08,57,15.70
2012,09,13,08,58,15.70
2012,09,13,08,59,15.70
2012,09,13,09,00,15.70
2012,09,13,09,01,15.70
2012,09,13,09,02,15.70
2012,09,13,09,03,15.70
2012,09,13,09,04,15.70
2012,09,13,09,05,15.80
2012,09,13,09,06,15.80
2012,09,13,09,07,15.80
2012,09,13,09,08,15.80
2012,09,13,09,09,15.80
2012,09,13,09,10,15.80
2012,09,13,09,11,15.80
2012,09,13,09,12,15.80
2012,09,13,09,13,15.80
2012,09,13,09,14,15.90
2012,09,13,09,15,15.90
2012,09,13,09,16,15.90
2012,09,13,09,17,15.90
2012,09,13,09,18,16.00
2012,09,13,09,19,16.00
2012,09,13,09,20,16.10
2012,09,13,09,21,16.10
2012,09,13,09,22,16.10
2012,09,13,09,23,16.10
2012,09,13,09,24,16.10
2012,09,13,09,25,16.10
2012,09,13,09,26,16.10
2012,09,13,09,27,16.10
2012,09,13,09,28,16.00
2012,09,13,09,29,16.00
2012,09,13,09,30,16.00
2012,09,13,09,31,16.10
2012,09,13,09,32,16.10
2012,09,13,09,33,16.10
2012,09,13,09,34,16.10
2012,09,13,09,35,16.10
2012,09,13,09,36,16.10
2012,09,13,09,37,16.10
2012,09,13,09,38,16.20
2012,09,13,09,39,16.20
2012,09,13,09,40,16.20
2012,09,13,09,41,16.30
2012,09,13,09,42,16.30
2012,09,13,09,43,16.30
2012,09,13,09,44,16.30
2012,09,13,09,45,16.40
2012,09,13,09,46,16.40
2012,09,13,09,47,16.40
2012,09,13,09,48,16.40
2012,09,13,09,49,16.40
2012,09,13,09,50,16.40
2012,09,13,09,51,16.40
2012,09,13,09,52,16.40
2012,09,13,09,53,16.40
2012,09,13,09,54,16.40
2012,09,13,09,55,16.40
2012,09,13,09,56,16.50
2012,09,13,09,57,16.50
2012,09,13,09,58,16.50
2012,09,13,09,59,16.50
2012,09,13,10,00,16.40
2012,09,13,10,01,16.40
2012,09,13,10,02,16.50
2012,09,13,10,03,16.50
2012,09,13,10,04,16.50
2012,09,13,10,05,16.50
2012,09,13,10,06,16.60
2012,09,13,10,07,16.60
2012,09,13,10,08,16.70
2012,09,13,10,09,16.70
2012,09,13,10,10,16.70
2012,09,13,10,11,16.80
2012,09,13,10,12,16.80
2012,09,13,10,13,16.80
2012,09,13,10,14,16.80
2012,09,13,10,15,16.80
2012,09,13,10,16,16.90
2012,09,13,10,17,16.90
2012,09,13,10,18,16.80
2012,09,13,10,19,16.90
2012,09,13,10,20,16.90
2012,09,13,10,21,16.90
2012,09,13,10,22,16.90
2012,09,13,10,23,16.90
2012,09,13,10,24,17.00
2012,09,13,10,25,17.00
2012,09,13,10,26,17.10
2012,09,13,10,27,17.20
2012,09,13,10,28,17.20
2012,09,13,10,29,17.20
2012,09,13,10,30,17.20
2012,09,13,10,31,17.20
2012,09,13,10,32,17.30
2012,09,13,10,33,17.30
2012,09,13,10,34,17.30
2012,09,13,10,35,17.30
2012,09,13,10,36,17.40
2012,09,13,10,37,17.40
2012,09,13,10,38,17.50
2012,09,13,10,39,17.50
2012,09,13,10,40,17.50
2012,09,13,10,41,17.50
2012,09,13,10,42,17.40
2012,09,13,10,43,17.40
2012,09,13,10,44,17.40
2012,09,13,10,45,17.40
2012,09,13,10,46,17.40
2012,09,13,10,47,17.40
2012,09,13,10,48,17.40
2012,09,13,10,49,17.50
2012,09,13,10,50,17.50
2012,09,13,10,51,17.50
2012,09,13,10,52,17.50
2012,09,13,10,53,17.50
2012,09,13,10,54,17.50
2012,09,13,10,55,17.60
2012,09,13,10,56,17.60
2012,09,13,10,57,17.70
2012,09,13,10,58,17.70
2012,09,13,10,59,17.70
2012,09,13,11,00,17.70
2012,09,13,11,01,17.70
2012,09,13,11,02,17.70
2012,09,13,11,03,17.70
2012,09,13,11,04,17.70
2012,09,13,11,05,17.80
2012,09,13,11,06,17.80
2012,09,13,11,07,17.80
2012,09,13,11,08,17.80
2012,09,13,11,09,17.80
2012,09,13,11,10,17.90
2012,09,13,11,11,17.90
2012,09,13,11,12,17.90
2012,09,13,11,13,17.90
2012,09,13,11,14,18.00
2012,09,13,11,15,18.00
2012,09,13,11,16,18.00
2012,09,13,11,17,18.10
2012,09,13,11,18,18.10
2012,09,13,11,19,18.10
2012,09,13,11,20,18.10
2012,09,13,11,21,18.20
2012,09,13,11,22,18.20
2012,09,13,11,23,18.20
2012,09,13,11,24,18.20
2012,09,13,11,25,18.20
2012,09,13,11,26,18.20
2012,09,13,11,27,18.20
2012,09,13,11,28,18.20
2012,09,13,11,29,18.20
2012,09,13,11,30,18.20
2012,09,13,11,31,18.20
2012,09,13,11,32,18.20
2012,09,13,11,33,18.30
2012,09,13,11,34,18.30
2012,09,13,11,35,18.30
2012,09,13,11,36,18.30
2012,09,13,11,37,18.30
2012,09,13,11,38,18.30
2012,09,13,11,39,18.30
2012,09,13,11,40,18.30
2012,09,13,11,41,18.30
2012,09,13,11,42,18.30
2012,09,13,11,43,18.30
2012,09,13,11,44,18.30
2012,09,13,11,45,18.30
2012,09,13,11,46,18.40
2012,09,13,11,47,18.40
2012,09,13,11,48,18.50
2012,09,13,11,49,18.50
2012,09,13,11,50,18.60
2012,09,13,11,51,18.60
2012,09,13,11,52,18.60
2012,09,13,11,53,18.70
2012,09,13,11,54,18.80
2012,09,13,11,55,18.80
2012,09,13,11,56,18.80
2012,09,13,11,57,18.80
2012,09,13,11,58,18.80
2012,09,13,11,59,18.90
2012,09,13,12,00,18.90
2012,09,13,12,01,19.00
2012,09,13,12,02,19.10
2012,09,13,12,03,19.10
2012,09,13,12,04,19.20
2012,09,13,12,05,19.20
2012,09,13,12,06,19.20
2012,09,13,12,07,19.20
2012,09,13,12,08,19.20
2012,09,13,12,09,19.20
2012,09,13,12,10,19.20
2012,09,13,12,11,19.20
2012,09,13,12,12,19.20
2012,09,13,12,13,19.20
2012,09,13,12,14,19.20
2012,09,13,12,15,19.20
2012,09,13,12,16,19.30
2012,09,13,12,17,19.30
2012,09,13,12,18,19.40
2012,09,13,12,19,19.40
2012,09,13,12,20,19.30
2012,09,13,12,21,19.30
2012,09,13,12,22,19.40
2012,09,13,12,23,19.40
2012,09,13,12,24,19.40
2012,09,13,12,25,19.40
2012,09,13,12,26,19.40
2012,09,13,12,27,19.40
2012,09,13,12,28,19.40
2012,09,13,12,29,19.50
2012,09,13,12,30,19.50
2012,09,13,12,31,19.50
2012,09,13,12,32,19.50
2012,09,13,12,33,19.40
2012,09,13,12,34,19.50
2012,09,13,12,35,19.50
2012,09,13,12,36,19.50
2012,09,13,12,37,19.60
2012,09,13,12,38,19.60
2012,09,13,12,39,19.70
2012,09,13,12,40,19.70
2012,09,13,12,41,19.80
2012,09,13,12,42,19.90
2012,09,13,12,43,20.00
2012,09,13,12,44,20.00
2012,09,13,12,45,20.10
2012,09,13,12,46,20.10
2012,09,13,12,47,20.10
2012,09,13,12,48,20.10
2012,09,13,12,49,20.20
2012,09,13,12,50,20.20
2012,09,13,12,51,20.20
2012,09,13,12,52,20.20
2012,09,13,12,53,20.20
2012,09,13,12,54,20.20
2012,09,13,12,55,20.10
2012,09,13,12,56,20.10
2012,09,13,12,57,20.00
2012,09,13,12,58,20.00
2012,09,13,12,59,20.00
2012,09,13,13,00,20.00
2012,09,13,13,01,20.00
2012,09,13,13,02,20.00
2012,09,13,13,03,20.10
2012,09,13,13,04,20.10
2012,09,13,13,05,20.20
2012,09,13,13,06,20.20
2012,09,13,13,07,20.10
2012,09,13,13,08,20.10
2012,09,13,13,09,20.10
2012,09,13,13,10,20.10
2012,09,13,13,11,20.10
2012,09,13,13,12,20.10
2012,09,13,13,13,20.10
2012,09,13,13,14,20.10
2012,09,13,13,15,20.10
2012,09,13,13,16,20.20
2012,09,13,13,17,20.20
2012,09,13,13,18,20.30
2012,09,13,13,19,20.30
2012,09,13,13,20,20.30
2012,09,13,13,21,20.30
2012,09,13,13,22,20.40
2012,09,13,13,23,20.40
2012,09,13,13,24,20.40
2012,09,13,13,25,20.40
2012,09,13,13,26,20.40
2012,09,13,13,27,20.40
2012,09,13,13,28,20.40
2012,09,13,13,29,20.50
2012,09,13,13,30,20.50
2012,09,13,13,31,20.50
2012,09,13,13,32,20.50
2012,09,13,13,33,20.50
2012,09,13,13,34,20.60
2012,09,13,13,35,20.60
2012,09,13,13,36,20.60
2012,09,13,13,37,20.70
2012,09,13,13,38,20.70
2012,09,13,13,39,20.80
2012,09,13,13,40,20.80
2012,09,13,13,41,20.80
2012,09,13,13,42,20.90
2012,09,13,13,43,20.90
2012,09,13,13,44,20.90
2012,09,13,13,45,20.90
2012,09,13,13,46,21.00
2012,09,13,13,47,21.00
2012,09,13,13,48,21.10
2012,09,13,13,49,21.10
2012,09,13,13,50,21.10
2012,09,13,13,51,21.10
2012,09,13,13,52,21.00
2012,09,13,13,53,21.00
2012,09,13,13,54,21.00
2012,09,13,13,55,21.00
2012,09,13,13,56,21.00
2012,09,13,13,57,21.10
2012,09,13,13,58,21.10
2012,09,13,13,59,21.10
2012,09,13,14,00,21.10
2012,09,13,14,01,21.10
2012,09,13,14,02,21.10
2012,09,13,14,03,21.10
2012,09,13,14,04,21.20
2012,09,13,14,05,21.20
2012,09,13,14,06,21.20
2012,09,13,14,07,21.30
2012,09,13,14,08,21.30
2012,09,13,14,09,21.30
2012,09,13,14,10,21.40
2012,09,13,14,11,21.40
2012,09,13,14,12,21.30
2012,09,13,14,13,21.30
2012,09,13,14,14,21.30
2012,09,13,14,15,21.30
2012,09,13,14,16,21.40
2012,09,13,14,17,21.40
2012,09,13,14,18,21.50
2012,09,13,14,19,21.50
2012,09,13,14,20,21.50
2012,09,13,14,21,21.40
2012,09,13,14,22,21.40
2012,09,13,14,23,21.40
2012,09,13,14,24,21.40
2012,09,13,14,25,21.50
2012,09,13,14,26,21.50
2012,09,13,14,27,21.60
2012,09,13,14,28,21.60
2012,09,13,14,29,21.50
2012,09,13,14,30,21.50
2012,09,13,14,31,21.50
2012,09,13,14,32,21.50
2012,09,13,14,33,21.50
2012,09,13,14,34,21.50
2012,09,13,14,35,21.50
2012,09,13,14,36,21.50
2012,09,13,14,37,21.50
2012,09,13,14,38,21.50
2012,09,13,14,39,21.60
2012,09,13,14,40,21.50
2012,09,13,14,41,21.50
2012,09,13,14,42,21.40
2012,09,13,14,43,21.40
2012,09,13,14,44,21.40
2012,09,13,14,45,21.40
2012,09,13,14,46,21.40
2012,09,13,14,47,21.40
2012,09,13,14,48,21.50
2012,09,13,14,49,21.50
2012,09,13,14,50,21.50
2012,09,13,14,51,21.60
2012,09,13,14,52,21.60
2012,09,13,14,53,21.60
2012,09,13,14,54,21.60
2012,09,13,14,55,21.70
2012,09,13,14,56,21.70
2012,09,13,14,57,21.70
2012,09,13,14,58,21.70
2012,09,13,14,59,21.80
2012,09,13,15,00,21.80
2012,09,13,15,01,21.90
2012,09,13,15,02,22.00
2012,09,13,15,03,22.10
2012,09,13,15,04,22.10
2012,09,13,15,05,22.20
2012,09,13,15,06,22.30
2012,09,13,15,07,22.30
2012,09,13,15,08,22.30
2012,09,13,15,09,22.30
2012,09,13,15,10,22.30
2012,09,13,15,11,22.40
2012,09,13,15,12,22.40
2012,09,13,15,13,22.40
2012,09,13,15,14,22.40
2012,09,13,15,15,22.40
2012,09,13,15,16,22.30
2012,09,13,15,17,22.20
2012,09,13,15,18,22.20
2012,09,13,15,19,22.10
2012,09,13,15,20,22.10
2012,09,13,15,21,22.10
2012,09,13,15,22,22.20
2012,09,13,15,23,22.20
2012,09,13,15,24,22.20
2012,09,13,15,25,22.20
2012,09,13,15,26,22.20
2012,09,13,15,27,22.20
2012,09,13,15,28,22.20
2012,09,13,15,29,22.30
2012,09,13,15,30,22.30
2012,09,13,15,31,22.30
2012,09,13,15,32,22.30
2012,09,13,15,33,22.30
2012,09,13,15,34,22.30
2012,09,13,15,35,22.30
2012,09,13,15,36,22.30
2012,09,13,15,37,22.30
2012,09,13,15,38,22.30
2012,09,13,15,39,22.20
2012,09,13,15,40,22.30
2012,09,13,15,41,22.30
2012,09,13,15,42,22.30
2012,09,13,15,43,22.30
2012,09,13,15,44,22.40
2012,09,13,15,45,22.40
2012,09,13,15,46,22.40
2012,09,13,15,47,22.40
2012,09,13,15,48,22.40
2012,09,13,15,49,22.40
2012,09,13,15,50,22.40
2012,09,13,15,51,22.40
2012,09,13,15,52,22.50
2012,09,13,15,53,22.50
2012,09,13,15,54,22.50
2012,09,13,15,55,22.40
2012,09,13,15,56,22.40
2012,09,13,15,57,22.40
2012,09,13,15,58,22.40
2012,09,13,15,59,22.40
2012,09,13,16,00,22.40
2012,09,13,16,01,22.40
2012,09,13,16,02,22.40
2012,09,13,16,03,22.40
2012,09,13,16,04,22.40
2012,09,13,16,05,22.40
2012,09,13,16,06,22.40
2012,09,13,16,07,22.40
2012,09,13,16,08,22.30
2012,09,13,16,09,22.40
2012,09,13,16,10,22.40
2012,09,13,16,11,22.40
2012,09,13,16,12,22.50
2012,09,13,16,13,22.50
2012,09,13,16,14,22.60
2012,09,13,16,15,22.60
2012,09,13,16,16,22.60
2012,09,13,16,17,22.60
2012,09,13,16,18,22.60
2012,09,13,16,19,22.70
2012,09,13,16,20,22.70
2012,09,13,16,21,22.60
2012,09,13,16,22,22.60
2012,09,13,16,23,22.50
2012,09,13,16,24,22.60
2012,09,13,16,25,22.60
2012,09,13,16,26,22.70
2012,09,13,16,27,22.80
2012,09,13,16,28,22.90
2012,09,13,16,29,23.00
2012,09,13,16,30,23.00
2012,09,13,16,31,23.10
2012,09,13,16,32,23.10
2012,09,13,16,33,23.00
2012,09,13,16,34,23.00
2012,09,13,16,35,23.00
2012,09,13,16,36,23.00
2012,09,13,16,37,23.00
2012,09,13,16,38,23.00
2012,09,13,16,39,23.10
2012,09,13,16,40,23.10
2012,09,13,16,41,23.10
2012,09,13,16,42,23.20
2012,09,13,16,43,23.20
2012,09,13,16,44,23.20
2012,09,13,16,45,23.10
2012,09,13,16,46,23.10
2012,09,13,16,47,23.10
2012,09,13,16,48,23.10
2012,09,13,16,49,23.10
2012,09,13,16,50,23.10
2012,09,13,16,51,23.20
2012,09,13,16,52,23.10
2012,09,13,16,53,23.10
2012,09,13,16,54,23.10
2012,09,13,16,55,23.10
2012,09,13,16,56,23.20
2012,09,13,16,57,23.10
2012,09,13,16,58,23.10
2012,09,13,16,59,23.10
2012,09,13,17,00,23.00
2012,09,13,17,01,23.00
2012,09,13,17,02,23.00
2012,09,13,17,03,22.90
2012,09,13,17,04,22.90
2012,09,13,17,05,22.80
2012,09,13,17,06,22.80
2012,09,13,17,07,22.80
2012,09,13,17,08,22.80
2012,09,13,17,09,22.80
2012,09,13,17,10,22.80
2012,09,13,17,11,22.90
2012,09,13,17,12,22.90
2012,09,13,17,13,22.90
2012,09,13,17,14,22.90
2012,09,13,17,15,22.90
2012,09,13,17,16,22.90
2012,09,13,17,17,22.90
2012,09,13,17,18,22.90
2012,09,13,17,19,23.00